[[{"header":{"parameterUnit":"m.s-1","parameterCategory":1,"la1":30.2991,"la2":30.254,"lo1":-89.0895,"lo2":-89.0444,"dy":0.0017,"dx":0.0017,"nx":28,"ny":28,"refTime":"2024-02-17T09:00:00:Z","depth":0,"parameterNumber":2,"parameterNumberName":"U-component_of_WINDS"},"data":[0,0,0,0,0,0,0,0,0,0,0,0,0,0,0,0,0,0,0,0,0,0,0,0,0,0,0,0,0,0,0,0,0,0,0,0,0,0,0,0,0,0,0,0,0,0,0,0,0,0,0,0,0,0,0,0,0,0,-1.3788,-1.3789,0,-1.3889,-1.389,-1.3891,-1.3878,-1.3876,-1.3875,-1.3873,-1.3978,-1.3982,-1.3986,0,0,0,0,0,0,0,0,0,0,0,0,0,-1.3583,-1.3587,-1.3788,-1.3789,-1.379,-1.3889,-1.389,-1.3892,-1.3878,-1.3876,-1.3874,-1.3872,-1.3976,-1.3981,-1.3987,0,0,0,0,0,0,0,0,0,0,0,0,0,-1.3677,-1.3588,-1.3787,-1.3796,-1.3797,-1.3888,-1.389,-1.3892,-1.3879,-1.3876,-1.3874,-1.3872,-1.3975,-1.3981,-1.3987,-1.4077,0,0,-1.4007,-1.401,0,0,0,0,0,0,0,0,-1.3671,-1.3684,-1.3793,-1.3795,-1.3797,-1.3868,-1.3856,-1.3954,-1.3879,-1.3848,-1.3873,-1.387,-1.3943,-1.3952,-1.3977,-1.4082,-1.4087,-1.4008,-1.4012,-1.4015,-1.4016,0,0,0,0,0,0,0,-1.3665,-1.368,-1.3828,-1.3795,-1.3797,-1.3794,-1.3805,-1.3875,-1.3908,-1.385,-1.385,-1.3862,-1.3944,-1.3971,-1.3979,-1.4088,-1.4008,-1.4013,-1.4017,-1.402,-1.4272,-1.4275,0,0,0,0,0,0,-1.3656,-1.3675,-1.3825,-1.3831,-1.3727,-1.38,-1.3812,-1.3848,-1.3908,-1.3914,-1.3864,-1.3861,-1.3961,-1.3972,-1.3983,-1.4093,-1.4014,-1.4021,-1.4024,-1.4269,-1.4273,-1.4276,0,0,0,0,0,0,-1.3652,-1.367,-1.382,-1.3753,-1.3771,-1.3806,-1.3847,-1.3851,-1.3878,-1.3918,-1.3924,-1.3885,-1.3959,-1.3974,-1.4054,-1.4096,-1.4023,-1.4029,-1.4266,-1.427,-1.4274,-1.4312,0,0,0,0,0,0,-1.3646,-1.3668,-1.3703,-1.3753,-1.3775,-1.389,-1.385,-1.3855,-1.3889,-1.3886,-1.3939,-1.3945,-1.3958,-1.4044,-1.406,-1.4104,-1.4034,-1.4262,-1.4268,-1.4273,-1.4308,-1.4317,-1.4326,0,0,0,0,0,-1.3639,-1.371,-1.3705,-1.3723,-1.3819,-1.3893,-1.3905,-1.3918,-1.3892,-1.3928,-1.3953,-1.3944,-1.4088,-1.4052,-1.407,-1.4116,-1.426,-1.4266,-1.4272,-1.4303,-1.4315,-1.4325,0,0,0,0,0,0,-1.3665,-1.3717,-1.3712,-1.3801,-1.3843,-1.389,-1.3935,-1.393,-1.398,-1.3975,-1.399,-1.4002,-1.4083,-1.4107,-1.4067,-1.4206,-1.417,-1.4181,-1.4188,-1.42,-1.4208,-1.4202,-1.404,0,0,0,0,0,-1.368,-1.3736,-1.3778,-1.3853,-1.3874,-1.3901,-1.3933,-1.394,-1.3983,-1.4001,-1.4032,-1.4074,-1.4129,-1.4165,-1.4218,-1.431,-1.4322,-1.435,-1.4359,-1.4367,-1.4376,-1.4426,-1.444,-1.4296,-1.4296,-1.4296,0,0,-1.3715,-1.375,-1.3784,-1.3859,-1.3892,-1.3949,-1.3916,-1.3977,-1.402,-1.401,-1.4088,-1.4112,-1.416,-1.4247,-1.4286,-1.427,-1.4418,-1.4375,-1.438,-1.4386,-1.4434,-1.4448,-1.446,-1.4301,-1.43,-1.4299,0,0,-1.3806,-1.3838,-1.3904,-1.3937,-1.3986,-1.4003,-1.4019,-1.4067,-1.4083,-1.4161,-1.4155,-1.4205,-1.4299,-1.4334,-1.4364,-1.4466,-1.4459,-1.4482,-1.4531,-1.458,-1.4591,-1.4601,-1.4639,-1.4652,-1.4491,-1.4491,-1.4491,0,-1.3842,-1.3928,-1.3938,-1.4001,-1.4034,-1.4026,-1.4094,-1.4125,-1.4189,-1.4213,-1.4192,-1.431,-1.4342,-1.4437,-1.4461,-1.4485,-1.4504,-1.4478,-1.4589,-1.4599,-1.4609,-1.4644,-1.4658,-1.4494,-1.4493,-1.4493,-1.4493,0,-1.397,-1.4029,-1.4076,-1.4138,-1.4176,-1.4241,-1.4261,-1.4299,-1.4301,-1.432,-1.4399,-1.4437,-1.4497,-1.4519,-1.4523,-1.4614,-1.4602,-1.4585,-1.455,-1.4625,-1.4659,-1.4672,-1.4498,-1.4497,-1.4496,-1.4495,0,0,-1.4083,-1.4148,-1.4166,-1.4194,-1.4247,-1.4293,-1.4356,-1.4414,-1.4447,-1.449,-1.4544,-1.4623,-1.4607,-1.4641,-1.4648,-1.4691,-1.477,-1.4668,-1.467,-1.4687,-1.4874,-1.4888,-1.4904,-1.4765,-1.4767,-1.4769,-1.487,0,-1.418,-1.4293,-1.4304,-1.4405,-1.446,-1.4452,-1.4507,-1.4546,-1.4565,-1.4614,-1.4634,-1.4691,-1.4665,-1.4685,-1.4727,-1.4751,-1.4808,-1.4744,-1.4816,-1.4818,-1.4806,-1.4921,-1.4937,-1.503,-1.4884,-1.4886,-1.4887,0,-1.431,-1.4357,-1.4464,-1.4508,-1.4532,-1.4581,-1.4635,-1.4682,-1.4725,-1.4736,-1.4773,-1.4773,-1.4838,-1.4798,-1.4889,-1.4845,-1.4874,-1.489,-1.4894,-1.4903,-1.4859,-1.4935,-1.506,-1.5075,-1.4908,-1.4907,-1.4905,0,-1.4384,-1.4473,-1.4549,-1.4572,-1.4626,-1.4661,-1.4685,-1.4726,-1.476,-1.4806,-1.4829,-1.4882,-1.4912,-1.4954,-1.4968,-1.4938,-1.5058,-1.5019,-1.5069,-1.5069,-1.5097,-1.5096,-1.5231,-1.5113,-1.5113,-1.5112,-1.5112,0,-1.4493,-1.4558,-1.4582,-1.4629,-1.4702,-1.4713,-1.4785,-1.4807,-1.4843,-1.4893,-1.4889,-1.4937,-1.4952,-1.5002,-1.5014,-1.5087,-1.51,-1.5111,-1.5114,-1.5113,-1.5112,-1.5134,-1.5128,-1.5116,-1.5115,-1.5115,-1.5114,0,-1.4588,-1.4607,-1.4689,-1.4732,-1.4744,-1.4796,-1.4834,-1.4878,-1.4895,-1.4959,-1.4975,-1.5002,-1.5061,-1.5079,-1.515,-1.5157,-1.5243,-1.5239,-1.5229,-1.523,-1.5279,-1.5275,-1.5435,-1.5457,-1.5323,-1.5324,-1.5325,0,-1.4658,-1.4708,-1.4757,-1.479,-1.4815,-1.4869,-1.4904,-1.4915,-1.4951,-1.5003,-1.5042,-1.5099,-1.5147,-1.524,-1.5267,-1.532,-1.5319,-1.5371,-1.5327,-1.5324,-1.5321,-1.5319,-1.5324,-1.538,-1.5381,-1.5382,-1.5383,0,-1.478,-1.4786,-1.4836,-1.4889,-1.493,-1.4972,-1.5013,-1.504,-1.5058,-1.5098,-1.5158,-1.5194,-1.5266,-1.5323,-1.5377,-1.5402,-1.5396,-1.5396,-1.5411,-1.5412,-1.5404,-1.541,-1.5253,-1.5394,-1.5392,-1.5392,-1.5391,-1.5391,-1.4866,-1.491,-1.4951,-1.5006,-1.5037,-1.5075,-1.5119,-1.5141,-1.5191,-1.525,-1.5254,-1.5318,-1.5359,-1.5431,-1.5458,-1.5509,-1.5494,-1.5515,-1.552,-1.5526,-1.553,-1.5394,-1.5518,-1.5518,-1.5518,-1.5518,-1.5517,0,-1.4988,-1.5014,-1.5064,-1.5121,-1.5164,-1.5153,-1.5197,-1.5235,-1.5291,-1.5329,-1.5375,-1.5443,-1.5499,-1.5528,-1.5583,-1.5618,-1.5617,-1.5632,-1.5631,-1.5637,-1.554,-1.5523,-1.5632,-1.5632,-1.5632,-1.5632,-1.5632,-1.5632,-1.5058,-1.5132,-1.5143,-1.5232,-1.5257,-1.532,-1.5347,-1.5381,-1.5411,-1.5488,-1.5533,-1.5552,-1.5587,-1.5644,-1.5694,-1.5701,-1.5722,-1.574,-1.5745,-1.5655,-1.5643,-1.5632,-1.5616,-1.5744,-1.5744,-1.5838,-1.5839,-1.5839]},{"header":{"parameterUnit":"m.s-1","parameterCategory":1,"la1":30.2991,"la2":30.254,"lo1":-89.0895,"lo2":-89.0444,"dy":0.0017,"dx":0.0017,"nx":28,"ny":28,"refTime":"2024-02-17T09:00:00:Z","depth":0,"parameterNumber":3,"parameterNumberName":"V-component_of_WINDS"},"data":[0,0,0,0,0,0,0,0,0,0,0,0,0,0,0,0,0,0,0,0,0,0,0,0,0,0,0,0,0,0,0,0,0,0,0,0,0,0,0,0,0,0,0,0,0,0,0,0,0,0,0,0,0,0,0,0,0,0,-8.5531,-8.5533,0,-8.5659,-8.5661,-8.5662,-8.5582,-8.5578,-8.5574,-8.5571,-8.5695,-8.5702,-8.5708,0,0,0,0,0,0,0,0,0,0,0,0,0,-8.5209,-8.5215,-8.5531,-8.5533,-8.5534,-8.5659,-8.5661,-8.5663,-8.5582,-8.5578,-8.5573,-8.5569,-8.5693,-8.5701,-8.5709,0,0,0,0,0,0,0,0,0,0,0,0,0,-8.5344,-8.5218,-8.5531,-8.5509,-8.5509,-8.5659,-8.5661,-8.5663,-8.5583,-8.5578,-8.5572,-8.5567,-8.569,-8.57,-8.571,-8.5886,0,0,-8.5741,-8.5746,0,0,0,0,0,0,0,0,-8.5337,-8.5356,-8.5511,-8.5511,-8.5511,-8.5599,-8.5593,-8.5738,-8.5585,-8.5555,-8.5571,-8.5564,-8.5667,-8.5679,-8.5715,-8.5892,-8.5898,-8.5742,-8.5749,-8.5753,-8.5756,0,0,0,0,0,0,0,-8.5327,-8.535,-8.5582,-8.5513,-8.5513,-8.5491,-8.5504,-8.562,-8.5641,-8.5557,-8.5551,-8.5568,-8.5666,-8.5706,-8.5718,-8.5899,-8.5742,-8.5751,-8.5758,-8.5762,-8.6226,-8.6232,0,0,0,0,0,0,-8.5321,-8.5343,-8.5577,-8.5585,-8.5408,-8.5501,-8.5516,-8.5576,-8.5639,-8.5644,-8.5573,-8.5564,-8.5691,-8.5706,-8.5722,-8.5932,-8.5753,-8.5763,-8.5768,-8.622,-8.6227,-8.6234,0,0,0,0,0,0,-8.5314,-8.5342,-8.5572,-8.5463,-8.549,-8.5513,-8.5581,-8.5582,-8.5621,-8.5652,-8.5654,-8.561,-8.5687,-8.5707,-8.5846,-8.5935,-8.5767,-8.5776,-8.6212,-8.6222,-8.6231,-8.6353,0,0,0,0,0,0,-8.5305,-8.5341,-8.541,-8.5465,-8.5497,-8.5698,-8.5587,-8.5588,-8.564,-8.563,-8.5687,-8.5691,-8.5684,-8.5831,-8.5856,-8.5946,-8.5784,-8.6205,-8.6217,-8.6228,-8.6341,-8.6366,-8.6386,0,0,0,0,0,-8.5294,-8.5438,-8.5414,-8.5442,-8.5584,-8.5703,-8.572,-8.5712,-8.5648,-8.5716,-8.5735,-8.5689,-8.5921,-8.5846,-8.5874,-8.5968,-8.6199,-8.6213,-8.6227,-8.6331,-8.6361,-8.6386,0,0,0,0,0,0,-8.5389,-8.5444,-8.5418,-8.5585,-8.564,-8.5689,-8.5775,-8.5743,-8.5816,-8.5803,-8.5787,-8.58,-8.5946,-8.597,-8.5886,-8.6141,-8.605,-8.607,-8.612,-8.6148,-8.617,-8.6161,-8.5793,0,0,0,0,0,-8.543,-8.5525,-8.5567,-8.5709,-8.5739,-8.5753,-8.5804,-8.5792,-8.5848,-8.587,-8.59,-8.5953,-8.6038,-8.6094,-8.6174,-8.6344,-8.6355,-8.6422,-8.6445,-8.6463,-8.648,-8.6571,-8.6601,-8.628,-8.628,-8.6279,0,0,-8.5514,-8.5556,-8.5617,-8.5729,-8.5771,-8.5867,-8.5772,-8.5878,-8.5948,-8.5885,-8.6019,-8.6043,-8.6101,-8.6257,-8.6327,-8.6282,-8.6572,-8.6481,-8.6495,-8.6503,-8.6589,-8.6619,-8.6646,-8.6289,-8.6288,-8.6286,0,0,-8.5718,-8.5759,-8.5883,-8.5927,-8.5992,-8.6,-8.6029,-8.6084,-8.6098,-8.6232,-8.6187,-8.6269,-8.6416,-8.6459,-8.6501,-8.672,-8.668,-8.6746,-8.6864,-8.6952,-8.6978,-8.7,-8.7077,-8.7106,-8.6764,-8.6764,-8.6764,0,-8.5814,-8.5959,-8.5949,-8.6059,-8.6109,-8.6059,-8.6182,-8.6225,-8.6311,-8.6346,-8.6295,-8.6478,-8.6514,-8.6679,-8.6733,-8.6768,-8.68,-8.674,-8.6975,-8.6998,-8.7018,-8.7092,-8.7121,-8.6772,-8.6771,-8.677,-8.6769,0,-8.6074,-8.6175,-8.6266,-8.6354,-8.6414,-8.653,-8.6536,-8.6598,-8.6581,-8.6594,-8.673,-8.6772,-8.6859,-8.6897,-8.6881,-8.7059,-8.703,-8.6978,-8.6885,-8.7057,-8.7126,-8.7154,-8.6782,-8.678,-8.6777,-8.6776,0,0,-8.634,-8.6422,-8.6455,-8.6495,-8.6562,-8.6639,-8.6752,-8.6839,-8.6892,-8.6953,-8.7046,-8.7172,-8.7124,-8.7171,-8.7159,-8.7237,-8.7407,-8.7175,-8.7176,-8.7216,-8.7605,-8.7644,-8.7677,-8.7382,-8.7387,-8.7391,-8.76,0,-8.6547,-8.6747,-8.6741,-8.6926,-8.7019,-8.6972,-8.707,-8.7121,-8.7136,-8.7214,-8.7229,-8.7319,-8.7249,-8.7277,-8.7353,-8.7371,-8.7485,-8.7356,-8.7466,-8.747,-8.7453,-8.7713,-8.7755,-8.795,-8.7627,-8.7632,-8.7635,0,-8.6815,-8.6888,-8.7083,-8.7137,-8.7176,-8.7265,-8.7344,-8.7421,-8.7476,-8.7481,-8.7535,-8.751,-8.7621,-8.7527,-8.768,-8.7592,-8.7636,-8.7652,-8.7659,-8.7668,-8.7563,-8.7729,-8.8012,-8.8041,-8.7678,-8.7674,-8.7671,0,-8.699,-8.7136,-8.7272,-8.7307,-8.7373,-8.7436,-8.7466,-8.7517,-8.757,-8.7638,-8.7672,-8.7752,-8.7795,-8.7856,-8.7853,-8.7785,-8.8007,-8.7913,-8.8013,-8.8013,-8.8062,-8.8058,-8.8355,-8.8091,-8.8091,-8.809,-8.809,0,-8.7221,-8.7342,-8.7351,-8.7435,-8.7568,-8.7559,-8.769,-8.7714,-8.7759,-8.7844,-8.7808,-8.7888,-8.7879,-8.7959,-8.7956,-8.8083,-8.8102,-8.8108,-8.8106,-8.8111,-8.8111,-8.814,-8.8126,-8.8098,-8.8096,-8.8095,-8.8094,0,-8.7438,-8.745,-8.7594,-8.7646,-8.7662,-8.7758,-8.7801,-8.7878,-8.789,-8.7998,-8.8023,-8.8041,-8.8133,-8.8136,-8.8241,-8.8239,-8.8393,-8.8376,-8.8375,-8.8372,-8.8472,-8.8462,-8.8797,-8.884,-8.8549,-8.8552,-8.8554,0,-8.7585,-8.7678,-8.774,-8.7796,-8.783,-8.792,-8.7975,-8.7969,-8.8026,-8.8097,-8.8166,-8.8255,-8.8326,-8.8475,-8.8496,-8.8576,-8.856,-8.8672,-8.8571,-8.8574,-8.856,-8.8555,-8.8563,-8.8691,-8.8694,-8.8697,-8.8699,0,-8.7844,-8.7846,-8.7927,-8.801,-8.8077,-8.8141,-8.8201,-8.8248,-8.8249,-8.8315,-8.841,-8.8466,-8.8574,-8.8662,-8.874,-8.8767,-8.8733,-8.8731,-8.8758,-8.8764,-8.876,-8.8763,-8.8428,-8.8723,-8.872,-8.8719,-8.8717,-8.8716,-8.8031,-8.811,-8.8167,-8.8258,-8.8303,-8.836,-8.8436,-8.8458,-8.8538,-8.8628,-8.8618,-8.8724,-8.8776,-8.8877,-8.8911,-8.8992,-8.8953,-8.8993,-8.9002,-8.9012,-8.9023,-8.8748,-8.9006,-8.9005,-8.9005,-8.9004,-8.9003,0,-8.8287,-8.8322,-8.8406,-8.8492,-8.8564,-8.8528,-8.8592,-8.8653,-8.8747,-8.88,-8.8871,-8.898,-8.9065,-8.9093,-8.9175,-8.9234,-8.9221,-8.9256,-8.9251,-8.9258,-8.9053,-8.9021,-8.9266,-8.9266,-8.9266,-8.9266,-8.9266,-8.9266,-8.843,-8.8563,-8.8571,-8.8724,-8.8757,-8.8862,-8.8902,-8.8953,-8.8995,-8.9119,-8.9191,-8.9209,-8.9251,-8.9336,-8.9412,-8.9418,-8.9449,-8.9492,-8.9491,-8.9299,-8.9273,-8.9247,-8.9217,-8.9499,-8.9499,-8.9688,-8.969,-8.9691]}]]